When you browse on this site, cookies collect data to enhance your experience and personalize the content and advertising you see.
Visit our Privacy Policy to learn more. By continuing to use the site, you agree to this use of cookies and data.
  • En España
  • Lista de países
  • Para 7 días
  • Temperatura del agua
  • Mapa Satelital
  • El tiempo en el mapa
  • Informadores
  • user-avatar
    Iniciar sesión

    Tiempo cada hora Sobreda

    Hoy, 17 Diciembre, Lunes

    Tiempo Temperatura Precipitaciones Viento Presión Humedad
    00:00 +9°C° 0 mm 0 mps 765 mmHg 87%
    01:00 +10°C° 0 mm 1 mps 765 mmHg 88%
    02:00 +10°C° 0 mm 1 mps 765 mmHg 89%
    03:00 +10°C° 0 mm 1 mps 765 mmHg 90%
    04:00 +8°C° 0 mm 2 mps 764 mmHg 90%
    05:00 +8°C° 0 mm 2 mps 765 mmHg 90%
    06:00 +8°C° 0 mm 2 mps 765 mmHg 88%
    07:00 +9°C° 0 mm 3 mps 765 mmHg 86%
    08:00 +9°C° 0 mm 3 mps 764 mmHg 84%
    09:00 +11°C° 0 mm 3 mps 764 mmHg 75%
    10:00 +12°C° 0 mm 3 mps 764 mmHg 67%
    11:00 +14°C° 0 mm 3 mps 764 mmHg 59%
    12:00 +14°C° 0 mm 3 mps 763 mmHg 56%
    13:00 +16°C° 0 mm 3 mps 763 mmHg 53%
    14:00 +16°C° 0 mm 3 mps 763 mmHg 51%
    15:00 +14°C° 0 mm 3 mps 762 mmHg 56%
    16:00 +13°C° 0 mm 3 mps 762 mmHg 60%
    17:00 +11°C° 0 mm 3 mps 762 mmHg 65%
    18:00 +11°C° 0 mm 3 mps 762 mmHg 67%
    19:00 +10°C° 0 mm 4 mps 762 mmHg 70%
    20:00 +10°C° 0 mm 4 mps 762 mmHg 72%
    21:00 +8°C° 0 mm 4 mps 762 mmHg 73%
    22:00 +8°C° 0 mm 4 mps 761 mmHg 75%
    23:00 +8°C° 0 mm 5 mps 761 mmHg 77%

    Mañana, 18 Diciembre, Martes

    Tiempo Temperatura Precipitaciones Viento Presión Humedad
    00:00 +8°C° 0 mm 5 mps 761 mmHg 77%
    01:00 +8°C° 0 mm 5 mps 760 mmHg 77%
    02:00 +8°C° 0 mm 6 mps 759 mmHg 77%
    03:00 +8°C° 0 mm 6 mps 759 mmHg 76%
    04:00 +8°C° 0 mm 6 mps 759 mmHg 75%
    05:00 +8°C° 0 mm 7 mps 758 mmHg 75%
    06:00 +9°C° 0 mm 7 mps 758 mmHg 76%
    07:00 +10°C° 0 mm 7 mps 758 mmHg 78%
    08:00 +11°C° 0 mm 8 mps 758 mmHg 79%
    09:00 +12°C° 0.1 mm 8 mps 758 mmHg 80%
    10:00 +13°C° 0.1 mm 9 mps 758 mmHg 81%
    11:00 +16°C° 0.1 mm 9 mps 758 mmHg 82%
    12:00 +15°C° 1.5 mm 9 mps 758 mmHg 84%
    13:00 +15°C° 1.5 mm 8 mps 757 mmHg 86%
    14:00 +15°C° 1.5 mm 8 mps 757 mmHg 88%
    15:00 +14°C° 1.8 mm 7 mps 757 mmHg 88%
    16:00 +13°C° 1.8 mm 6 mps 758 mmHg 89%
    17:00 +12°C° 1.8 mm 5 mps 758 mmHg 90%
    18:00 +12°C° 0 mm 4 mps 759 mmHg 90%
    19:00 +11°C° 0 mm 4 mps 759 mmHg 89%
    20:00 +10°C° 0 mm 3 mps 760 mmHg 89%
    21:00 +10°C° 0 mm 3 mps 760 mmHg 88%
    22:00 +10°C° 0 mm 3 mps 760 mmHg 87%
    23:00 +9°C° 0 mm 2 mps 761 mmHg 86%

    Pasado mañana, 19 Diciembre, Miércoles

    Tiempo Temperatura Precipitaciones Viento Presión Humedad
    00:00 +9°C° 0 mm 3 mps 761 mmHg 86%
    01:00 +9°C° 0 mm 3 mps 761 mmHg 85%
    02:00 +9°C° 0 mm 3 mps 761 mmHg 85%
    03:00 +9°C° 0 mm 3 mps 761 mmHg 85%
    04:00 +8°C° 0 mm 4 mps 761 mmHg 86%
    05:00 +10°C° 0 mm 4 mps 762 mmHg 86%
    06:00 +10°C° 0 mm 4 mps 762 mmHg 86%
    07:00 +11°C° 0 mm 3 mps 762 mmHg 85%
    08:00 +11°C° 0 mm 3 mps 763 mmHg 85%
    09:00 +13°C° 0 mm 3 mps 763 mmHg 78%
    10:00 +14°C° 0 mm 3 mps 763 mmHg 72%
    11:00 +17°C° 0 mm 4 mps 763 mmHg 65%
    12:00 +17°C° 0 mm 4 mps 763 mmHg 64%
    13:00 +17°C° 0 mm 4 mps 763 mmHg 63%
    14:00 +17°C° 0 mm 4 mps 762 mmHg 62%
    15:00 +14°C° 0 mm 3 mps 762 mmHg 68%
    16:00 +13°C° 0 mm 3 mps 763 mmHg 74%
    17:00 +12°C° 0 mm 3 mps 763 mmHg 80%
    18:00 +12°C° 0 mm 2 mps 763 mmHg 82%
    19:00 +12°C° 0 mm 2 mps 764 mmHg 84%
    20:00 +12°C° 0 mm 2 mps 764 mmHg 86%
    21:00 +11°C° 0 mm 1 mps 764 mmHg 86%
    22:00 +11°C° 0 mm 1 mps 764 mmHg 87%
    23:00 +11°C° 0 mm 1 mps 764 mmHg 88%

    20 Diciembre, Jueves

    Tiempo Temperatura Precipitaciones Viento Presión Humedad
    00:00 +11°C° 0 mm 1 mps 764 mmHg 88%
    01:00 +11°C° 0 mm 1 mps 764 mmHg 88%
    02:00 +10°C° 0 mm 1 mps 764 mmHg 89%
    03:00 +10°C° 0 mm 1 mps 764 mmHg 89%
    04:00 +9°C° 0 mm 2 mps 764 mmHg 89%
    05:00 +9°C° 0 mm 2 mps 764 mmHg 90%
    06:00 +10°C° 0 mm 2 mps 764 mmHg 89%
    07:00 +10°C° 0 mm 2 mps 765 mmHg 88%
    08:00 +12°C° 0 mm 2 mps 765 mmHg 88%
    09:00 +13°C° 0 mm 2 mps 765 mmHg 83%
    10:00 +15°C° 0 mm 2 mps 765 mmHg 77%
    11:00 +16°C° 0 mm 2 mps 765 mmHg 72%
    12:00 +16°C° 0 mm 2 mps 765 mmHg 71%
    13:00 +17°C° 0 mm 3 mps 764 mmHg 69%
    14:00 +17°C° 0 mm 3 mps 764 mmHg 68%
    15:00 +15°C° 0 mm 2 mps 764 mmHg 73%
    16:00 +14°C° 0 mm 2 mps 764 mmHg 78%
    17:00 +13°C° 0 mm 2 mps 765 mmHg 83%
    18:00 +13°C° 0 mm 2 mps 765 mmHg 84%
    19:00 +12°C° 0 mm 2 mps 765 mmHg 86%
    20:00 +12°C° 0 mm 2 mps 766 mmHg 87%
    21:00 +12°C° 0 mm 2 mps 766 mmHg 87%
    22:00 +12°C° 0 mm 2 mps 766 mmHg 88%
    23:00 +10°C° 0 mm 2 mps 766 mmHg 88%

    21 Diciembre, Viernes

    Tiempo Temperatura Precipitaciones Viento Presión Humedad
    00:00 +10°C° 0 mm 2 mps 766 mmHg 89%
    01:00 +10°C° 0 mm 2 mps 766 mmHg 89%
    02:00 +10°C° 0 mm 2 mps 765 mmHg 90%
    03:00 +10°C° 0 mm 2 mps 765 mmHg 90%
    04:00 +10°C° 0 mm 2 mps 766 mmHg 91%
    05:00 +9°C° 0 mm 2 mps 766 mmHg 91%
    06:00 +10°C° 0 mm 2 mps 766 mmHg 90%
    07:00 +10°C° 0 mm 2 mps 766 mmHg 89%
    08:00 +10°C° 0 mm 2 mps 766 mmHg 88%
    09:00 +13°C° 0 mm 2 mps 766 mmHg 80%
    10:00 +15°C° 0 mm 2 mps 766 mmHg 72%
    11:00 +17°C° 0 mm 2 mps 767 mmHg 65%
    12:00 +17°C° 0 mm 2 mps 766 mmHg 63%
    13:00 +18°C° 0 mm 1 mps 766 mmHg 62%
    14:00 +19°C° 0 mm 1 mps 765 mmHg 60%
    15:00 +16°C° 0 mm 1 mps 765 mmHg 66%
    16:00 +15°C° 0 mm 1 mps 766 mmHg 72%
    17:00 +13°C° 0 mm 1 mps 766 mmHg 78%
    18:00 +13°C° 0 mm 1 mps 766 mmHg 79%
    19:00 +13°C° 0 mm 1 mps 766 mmHg 80%
    20:00 +12°C° 0 mm 1 mps 766 mmHg 81%
    21:00 +12°C° 0 mm 1 mps 766 mmHg 82%
    22:00 +12°C° 0 mm 1 mps 766 mmHg 83%
    23:00 +11°C° 0 mm 1 mps 766 mmHg 85%

    22 Diciembre, Sábado

    Tiempo Temperatura Precipitaciones Viento Presión Humedad
    00:00 +10°C° 0 mm 2 mps 766 mmHg 86%
    01:00 +10°C° 0 mm 2 mps 765 mmHg 87%
    02:00 +10°C° 0 mm 2 mps 765 mmHg 88%
    03:00 +9°C° 0 mm 2 mps 765 mmHg 88%
    04:00 +9°C° 0 mm 3 mps 765 mmHg 89%
    05:00 +9°C° 0 mm 3 mps 765 mmHg 89%
    06:00 +10°C° 0 mm 3 mps 765 mmHg 88%
    07:00 +10°C° 0 mm 3 mps 765 mmHg 87%
    08:00 +10°C° 0 mm 4 mps 765 mmHg 85%
    09:00 +12°C° 0 mm 3 mps 765 mmHg 78%
    10:00 +14°C° 0 mm 3 mps 765 mmHg 71%
    11:00 +17°C° 0 mm 3 mps 765 mmHg 64%
    12:00 +18°C° 0 mm 3 mps 764 mmHg 62%
    13:00 +19°C° 0 mm 2 mps 764 mmHg 60%
    14:00 +19°C° 0 mm 2 mps 763 mmHg 58%
    15:00 +18°C° 0 mm 2 mps 763 mmHg 65%
    16:00 +16°C° 0 mm 2 mps 763 mmHg 71%
    17:00 +15°C° 0 mm 1 mps 763 mmHg 77%
    18:00 +14°C° 0 mm 2 mps 763 mmHg 79%
    19:00 +14°C° 0 mm 2 mps 763 mmHg 81%
    20:00 +14°C° 0 mm 2 mps 763 mmHg 83%
    21:00 +13°C° 0 mm 2 mps 763 mmHg 83%
    22:00 +13°C° 0 mm 2 mps 763 mmHg 84%
    23:00 +12°C° 0 mm 2 mps 763 mmHg 84%
    Mostrar más